,,,PA_Meas_PMT16A,,PR_Meas_QMR101_102,,RH_Meas_QMH101,,SR_Meas_QMS101,,TA_Meas_QMH101,,GenWind,,GenWind,
date,time,status,PA,status,PR,status,RH,status,SR,status,TA,status,DirAvg,status,SpdAvg,
2010-05-10, 00:00:04,VALID,1005.91,VALID,0,VALID,102.185,VALID,0.105969,VALID,24.2963,VALID,51,VALID,0,
2010-05-10, 00:01:04,VALID,1005.9,VALID,0,VALID,102.2,VALID,0.105969,VALID,24.2963,VALID,51,VALID,0,
2010-05-10, 00:02:04,VALID,1005.91,VALID,0,VALID,102.17,VALID,0.105969,VALID,24.2963,VALID,51,VALID,0,
2010-05-10, 00:03:04,VALID,1005.88,VALID,0,VALID,102.155,VALID,0.105969,VALID,24.2963,VALID,51,VALID,0,
2010-05-10, 00:04:04,VALID,1005.86,VALID,0,VALID,102.185,VALID,0.105969,VALID,24.3176,VALID,85,VALID,0,
2010-05-10, 00:05:04,VALID,1005.86,VALID,0,VALID,102.17,VALID,0.105969,VALID,24.2963,VALID,133,VALID,0,
2010-05-10, 00:06:04,VALID,1005.83,VALID,0,VALID,102.185,VALID,0.105969,VALID,24.2768,VALID,133,VALID,0,
2010-05-10, 00:07:04,VALID,1005.83,VALID,0,VALID,102.185,VALID,0.211938,VALID,24.2768,VALID,133,VALID,0,
2010-05-10, 00:08:04,VALID,1005.77,VALID,0,VALID,102.208,VALID,0.105969,VALID,24.2573,VALID,133,VALID,0,
2010-05-10, 00:09:04,VALID,1005.76,VALID,0,VALID,102.208,VALID,0.105969,VALID,24.2378,VALID,133,VALID,0,
2010-05-10, 00:10:04,VALID,1005.73,VALID,0,VALID,102.193,VALID,0.105969,VALID,24.2378,VALID,133,VALID,0,
2010-05-10, 00:11:04,VALID,1005.7,VALID,0,VALID,102.177,VALID,0.105969,VALID,24.2396,VALID,133,VALID,0,
2010-05-10, 00:12:04,VALID,1005.67,VALID,0,VALID,102.17,VALID,0.105969,VALID,24.2786,VALID,146,VALID,0.775391,
2010-05-10, 00:13:04,VALID,1005.66,VALID,0,VALID,102.147,VALID,0.105969,VALID,24.2768,VALID,141,VALID,0.922266,
2010-05-10, 00:14:04,VALID,1005.63,VALID,0,VALID,102.116,VALID,0.105969,VALID,24.2768,VALID,140,VALID,0.552344,
2010-05-10, 00:15:04,VALID,1005.61,VALID,0,VALID,102.124,VALID,0.105969,VALID,24.3176,VALID,140,VALID,0.510547,
2010-05-10, 00:16:04,VALID,1005.62,VALID,0,VALID,102.101,VALID,0.105969,VALID,24.2963,VALID,115,VALID,0.471094,
2010-05-10, 00:17:04,VALID,1005.6,VALID,0,VALID,102.078,VALID,0,VALID,24.3389,VALID,114,VALID,0.555469,
2010-05-10, 00:18:04,VALID,1005.61,VALID,0,VALID,102.101,VALID,0,VALID,24.3371,VALID,113,VALID,0.672656,
2010-05-10, 00:19:04,VALID,1005.62,VALID,0,VALID,102.109,VALID,0,VALID,24.3779,VALID,118,VALID,0.594922,
2010-05-10, 00:20:04,VALID,1005.62,VALID,0,VALID,102.116,VALID,0,VALID,24.3566,VALID,116,VALID,0.683594,
2010-05-10, 00:21:04,VALID,1005.61,VALID,0,VALID,102.101,VALID,0,VALID,24.3566,VALID,108,VALID,0.779688,
2010-05-10, 00:22:04,VALID,1005.62,VALID,0,VALID,102.132,VALID,0,VALID,24.3566,VALID,123,VALID,0.667578,
2010-05-10, 00:23:04,VALID,1005.57,VALID,0,VALID,102.132,VALID,0,VALID,24.3761,VALID,117,VALID,0.451172,
2010-05-10, 00:24:04,VALID,1005.55,VALID,0,VALID,102.162,VALID,0,VALID,24.3779,VALID,113,VALID,0.375,
2010-05-10, 00:25:04,VALID,1005.52,VALID,0,VALID,102.155,VALID,0,VALID,24.3974,VALID,90,VALID,0.521484,
2010-05-10, 00:26:04,VALID,1005.49,VALID,0,VALID,102.185,VALID,0,VALID,24.3566,VALID,90,VALID,0.605859,
2010-05-10, 00:27:04,VALID,1005.49,VALID,0,VALID,102.2,VALID,0,VALID,24.3779,VALID,75,VALID,0.63125,
2010-05-10, 00:28:04,VALID,1005.47,VALID,0,VALID,102.223,VALID,0,VALID,24.3371,VALID,82,VALID,0.602344,
2010-05-10, 00:29:04,VALID,1005.47,VALID,0,VALID,102.223,VALID,0,VALID,24.3779,VALID,81,VALID,0.261328,
2010-05-10, 00:30:04,VALID,1005.49,VALID,0,VALID,102.246,VALID,0,VALID,24.3566,VALID,81,VALID,0.367578,
2010-05-10, 00:31:04,VALID,1005.47,VALID,0,VALID,102.223,VALID,0,VALID,24.3584,VALID,81,VALID,0.424219,
2010-05-10, 00:32:04,VALID,1005.47,VALID,0,VALID,102.246,VALID,0.105969,VALID,24.3352,VALID,81,VALID,0.358203,
2010-05-10, 00:33:04,VALID,1005.47,VALID,0,VALID,102.254,VALID,0,VALID,24.3158,VALID,90,VALID,0.253516,
2010-05-10, 00:34:04,VALID,1005.46,VALID,0,VALID,102.246,VALID,0.105969,VALID,24.3566,VALID,90,VALID,0.330469,
2010-05-10, 00:35:04,VALID,1005.48,VALID,0,VALID,102.246,VALID,0,VALID,24.3371,VALID,73,VALID,0.267969,
2010-05-10, 00:36:04,VALID,1005.49,VALID,0,VALID,102.254,VALID,0.105969,VALID,24.3566,VALID,73,VALID,0.195313,
2010-05-10, 00:37:04,VALID,1005.47,VALID,0,VALID,102.254,VALID,0,VALID,24.3566,VALID,73,VALID,0.486719,
2010-05-10, 00:38:04,VALID,1005.47,VALID,0,VALID,102.269,VALID,0.105969,VALID,24.3761,VALID,85,VALID,0.373047,
2010-05-10, 00:39:04,VALID,1005.48,VALID,0,VALID,102.269,VALID,0.105969,VALID,24.3566,VALID,85,VALID,0.510938,
2010-05-10, 00:40:04,VALID,1005.49,VALID,0,VALID,102.284,VALID,0.105969,VALID,24.3352,VALID,85,VALID,0.523828,
2010-05-10, 00:41:04,VALID,1005.47,VALID,0,VALID,102.299,VALID,0,VALID,24.3566,VALID,63,VALID,0.333594,
2010-05-10, 00:42:04,VALID,1005.44,VALID,0,VALID,102.322,VALID,0,VALID,24.3547,VALID,81,VALID,0.416406,
2010-05-10, 00:43:04,VALID,1005.41,VALID,0,VALID,102.322,VALID,0,VALID,24.3761,VALID,81,VALID,0.196094,
2010-05-10, 00:44:04,VALID,1005.39,VALID,0,VALID,102.299,VALID,0.105969,VALID,24.3547,VALID,81,VALID,0.146094,
2010-05-10, 00:45:04,VALID,1005.38,VALID,0,VALID,102.33,VALID,0.105969,VALID,24.3742,VALID,77,VALID,0.646484,
2010-05-10, 00:46:04,VALID,1005.39,VALID,0,VALID,102.322,VALID,0.105969,VALID,24.3761,VALID,77,VALID,0.342578,
2010-05-10, 00:47:04,VALID,1005.39,VALID,0,VALID,102.33,VALID,0.105969,VALID,24.3742,VALID,77,VALID,0,
2010-05-10, 00:48:04,VALID,1005.36,VALID,0,VALID,102.338,VALID,0.105969,VALID,24.3547,VALID,77,VALID,0,
2010-05-10, 00:49:04,VALID,1005.34,VALID,0,VALID,102.322,VALID,0.105969,VALID,24.3547,VALID,77,VALID,0,
2010-05-10, 00:50:04,VALID,1005.3,VALID,0,VALID,102.33,VALID,0,VALID,24.3956,VALID,77,VALID,0.213672,
2010-05-10, 00:51:04,VALID,1005.3,VALID,0,VALID,102.33,VALID,0,VALID,24.415,VALID,77,VALID,0.257813,
2010-05-10, 00:52:04,VALID,1005.26,VALID,0,VALID,102.33,VALID,0,VALID,24.415,VALID,77,VALID,0,
2010-05-10, 00:53:04,VALID,1005.23,VALID,0,VALID,102.353,VALID,0,VALID,24.3742,VALID,77,VALID,0,
2010-05-10, 00:54:04,VALID,1005.24,VALID,0,VALID,102.338,VALID,0,VALID,24.3547,VALID,93,VALID,0,
2010-05-10, 00:55:04,VALID,1005.27,VALID,0,VALID,102.353,VALID,0,VALID,24.3761,VALID,93,VALID,0,
2010-05-10, 00:56:04,VALID,1005.22,VALID,0,VALID,102.345,VALID,0.105969,VALID,24.3352,VALID,93,VALID,0,
2010-05-10, 00:57:04,VALID,1005.26,VALID,0,VALID,102.322,VALID,0.105969,VALID,24.3566,VALID,93,VALID,0,
2010-05-10, 00:58:04,VALID,1005.24,VALID,0,VALID,102.33,VALID,0.105969,VALID,24.3566,VALID,93,VALID,0,
2010-05-10, 00:59:04,VALID,1005.2,VALID,0,VALID,102.33,VALID,0,VALID,24.3352,VALID,93,VALID,0,
2010-05-10, 01:00:04,VALID,1005.21,VALID,0,VALID,102.33,VALID,0.105969,VALID,24.3352,VALID,93,VALID,0,
2010-05-10, 01:01:04,VALID,1005.22,VALID,0,VALID,102.33,VALID,0.105969,VALID,24.3352,VALID,93,VALID,0,
2010-05-10, 01:02:04,VALID,1005.21,VALID,0,VALID,102.315,VALID,0.105969,VALID,24.3352,VALID,93,VALID,0,
2010-05-10, 01:03:04,VALID,1005.22,VALID,0,VALID,102.322,VALID,0.105969,VALID,24.3761,VALID,93,VALID,0,
2010-05-10, 01:04:04,VALID,1005.23,VALID,0,VALID,102.315,VALID,0.105969,VALID,24.3352,VALID,93,VALID,0,
2010-05-10, 01:05:04,VALID,1005.24,VALID,0,VALID,102.307,VALID,0,VALID,24.3742,VALID,93,VALID,0,
2010-05-10, 01:06:04,VALID,1005.22,VALID,0,VALID,102.299,VALID,0.105969,VALID,24.3742,VALID,93,VALID,0,
2010-05-10, 01:07:04,VALID,1005.21,VALID,0,VALID,102.315,VALID,0.105969,VALID,24.3742,VALID,93,VALID,0,
2010-05-10, 01:08:04,VALID,1005.19,VALID,0,VALID,102.292,VALID,0.105969,VALID,24.3742,VALID,93,VALID,0,
2010-05-10, 01:09:04,VALID,1005.21,VALID,0,VALID,102.315,VALID,0.105969,VALID,24.3761,VALID,93,VALID,0,
2010-05-10, 01:10:04,VALID,1005.22,VALID,0,VALID,102.292,VALID,0,VALID,24.3547,VALID,93,VALID,0,
2010-05-10, 01:11:04,VALID,1005.23,VALID,0,VALID,102.284,VALID,0.105969,VALID,24.3761,VALID,93,VALID,0,
2010-05-10, 01:12:04,VALID,1005.22,VALID,0,VALID,102.315,VALID,0,VALID,24.3761,VALID,93,VALID,0,
2010-05-10, 01:13:04,VALID,1005.25,VALID,0,VALID,102.33,VALID,0.105969,VALID,24.3352,VALID,93,VALID,0,
2010-05-10, 01:14:04,VALID,1005.24,VALID,0,VALID,102.292,VALID,0.105969,VALID,24.3547,VALID,93,VALID,0,
2010-05-10, 01:15:04,VALID,1005.23,VALID,0,VALID,102.299,VALID,0,VALID,24.3371,VALID,93,VALID,0,
2010-05-10, 01:16:04,VALID,1005.27,VALID,0,VALID,102.322,VALID,0,VALID,24.3158,VALID,44,VALID,0,
2010-05-10, 01:17:04,VALID,1005.24,VALID,0,VALID,102.322,VALID,0,VALID,24.3158,VALID,35,VALID,0,
2010-05-10, 01:18:04,VALID,1005.29,VALID,0,VALID,102.338,VALID,0,VALID,24.3371,VALID,18,VALID,0,
2010-05-10, 01:19:04,VALID,1005.29,VALID,0,VALID,102.299,VALID,0.105969,VALID,24.3158,VALID,18,VALID,0,
2010-05-10, 01:20:04,VALID,1005.33,VALID,0,VALID,102.345,VALID,0.105969,VALID,24.3158,VALID,18,VALID,0,
2010-05-10, 01:21:04,VALID,1005.32,VALID,0,VALID,102.345,VALID,0.105969,VALID,24.2963,VALID,18,VALID,0,
2010-05-10, 01:22:04,VALID,1005.36,VALID,0,VALID,102.338,VALID,0,VALID,24.2963,VALID,18,VALID,0,
2010-05-10, 01:23:04,VALID,1005.36,VALID,0,VALID,102.345,VALID,0.105969,VALID,24.2786,VALID,18,VALID,0,
2010-05-10, 01:24:04,VALID,1005.37,VALID,0,VALID,102.33,VALID,0,VALID,24.2786,VALID,18,VALID,0,
2010-05-10, 01:25:04,VALID,1005.35,VALID,0,VALID,102.353,VALID,0.105969,VALID,24.2378,VALID,18,VALID,0,
2010-05-10, 01:26:04,VALID,1005.32,VALID,0,VALID,102.345,VALID,0.105969,VALID,24.2591,VALID,18,VALID,0,
2010-05-10, 01:27:04,VALID,1005.34,VALID,0,VALID,102.345,VALID,0,VALID,24.2183,VALID,18,VALID,0,
2010-05-10, 01:28:04,VALID,1005.32,VALID,0,VALID,102.345,VALID,0.105969,VALID,24.2183,VALID,18,VALID,0,
2010-05-10, 01:29:04,VALID,1005.28,VALID,0,VALID,102.353,VALID,0,VALID,24.2202,VALID,18,VALID,0,
2010-05-10, 01:30:04,VALID,1005.3,VALID,0,VALID,102.322,VALID,0,VALID,24.1988,VALID,18,VALID,0,
2010-05-10, 01:31:04,VALID,1005.28,VALID,0,VALID,102.345,VALID,0.105969,VALID,24.2202,VALID,18,VALID,0,
2010-05-10, 01:32:04,VALID,1005.28,VALID,0,VALID,102.33,VALID,0.105969,VALID,24.1988,VALID,18,VALID,0,
2010-05-10, 01:33:04,VALID,1005.31,VALID,0,VALID,102.36,VALID,0,VALID,24.2007,VALID,18,VALID,0,
2010-05-10, 01:34:05,VALID,1005.28,VALID,0,VALID,102.338,VALID,0,VALID,24.1988,VALID,18,VALID,0,
2010-05-10, 01:35:05,VALID,1005.31,VALID,0,VALID,102.322,VALID,0,VALID,24.2202,VALID,18,VALID,0,
2010-05-10, 01:36:05,VALID,1005.29,VALID,0,VALID,102.322,VALID,0,VALID,24.2396,VALID,18,VALID,0,
2010-05-10, 01:37:05,VALID,1005.27,VALID,0,VALID,102.315,VALID,0.105969,VALID,24.2183,VALID,18,VALID,0,
2010-05-10, 01:38:05,VALID,1005.28,VALID,0,VALID,102.33,VALID,0.105969,VALID,24.2183,VALID,18,VALID,0,
2010-05-10, 01:39:05,VALID,1005.29,VALID,0,VALID,102.33,VALID,0.105969,VALID,24.2378,VALID,18,VALID,0,
2010-05-10, 01:40:05,VALID,1005.29,VALID,0,VALID,102.322,VALID,0.105969,VALID,24.2378,VALID,18,VALID,0,
2010-05-10, 01:41:05,VALID,1005.27,VALID,0,VALID,102.33,VALID,0,VALID,24.2396,VALID,18,VALID,0,
2010-05-10, 01:42:05,VALID,1005.3,VALID,0,VALID,102.33,VALID,0.105969,VALID,24.2396,VALID,19,VALID,0,
2010-05-10, 01:43:05,VALID,1005.32,VALID,0,VALID,102.33,VALID,0,VALID,24.1988,VALID,19,VALID,0,
2010-05-10, 01:44:05,VALID,1005.31,VALID,0,VALID,102.338,VALID,0.105969,VALID,24.2183,VALID,156,VALID,0,
2010-05-10, 01:45:05,VALID,1005.32,VALID,0,VALID,102.315,VALID,0,VALID,24.2183,VALID,156,VALID,0,
2010-05-10, 01:46:05,VALID,1005.3,VALID,0,VALID,102.292,VALID,0.105969,VALID,24.2396,VALID,156,VALID,0,
2010-05-10, 01:47:05,VALID,1005.28,VALID,0,VALID,102.322,VALID,0,VALID,24.2378,VALID,156,VALID,0,
2010-05-10, 01:48:05,VALID,1005.29,VALID,0,VALID,102.33,VALID,0.105969,VALID,24.2591,VALID,154,VALID,0,
2010-05-10, 01:49:05,VALID,1005.26,VALID,0,VALID,102.33,VALID,0.105969,VALID,24.2378,VALID,155,VALID,0.292578,
2010-05-10, 01:50:05,VALID,1005.25,VALID,0,VALID,102.322,VALID,0.105969,VALID,24.2786,VALID,140,VALID,0.526953,
2010-05-10, 01:51:05,VALID,1005.22,VALID,0,VALID,102.338,VALID,0.105969,VALID,24.2768,VALID,140,VALID,0.644531,
2010-05-10, 01:52:05,VALID,1005.24,VALID,0,VALID,102.33,VALID,0,VALID,24.2981,VALID,140,VALID,0.630859,
2010-05-10, 01:53:05,VALID,1005.25,VALID,0,VALID,102.315,VALID,0,VALID,24.3176,VALID,139,VALID,0.526953,
2010-05-10, 01:54:05,VALID,1005.22,VALID,0,VALID,102.33,VALID,0,VALID,24.3176,VALID,139,VALID,0.307422,
2010-05-10, 01:55:05,VALID,1005.24,VALID,0,VALID,102.345,VALID,0,VALID,24.3176,VALID,139,VALID,0.460547,
2010-05-10, 01:56:05,VALID,1005.21,VALID,0,VALID,102.353,VALID,0,VALID,24.3371,VALID,138,VALID,0.567969,
2010-05-10, 01:57:05,VALID,1005.23,VALID,0,VALID,102.338,VALID,0,VALID,24.3566,VALID,100,VALID,0.743359,
2010-05-10, 01:58:05,VALID,1005.21,VALID,0,VALID,102.36,VALID,0.105969,VALID,24.3761,VALID,101,VALID,0.829687,
2010-05-10, 01:59:05,VALID,1005.22,VALID,0,VALID,102.345,VALID,0,VALID,24.3742,VALID,95,VALID,1.21523,
2010-05-10, 02:00:05,VALID,1005.21,VALID,0,VALID,102.353,VALID,0.105969,VALID,24.3956,VALID,87,VALID,0.938281,
2010-05-10, 02:01:05,VALID,1005.22,VALID,0,VALID,102.345,VALID,0.105969,VALID,24.3742,VALID,88,VALID,0.734375,
2010-05-10, 02:02:05,VALID,1005.21,VALID,0,VALID,102.353,VALID,0.105969,VALID,24.3937,VALID,85,VALID,0.798047,
2010-05-10, 02:03:05,VALID,1005.22,VALID,0,VALID,102.36,VALID,0.105969,VALID,24.3956,VALID,82,VALID,0.711328,
2010-05-10, 02:04:05,VALID,1005.19,VALID,0,VALID,102.36,VALID,0.105969,VALID,24.3761,VALID,81,VALID,0.443359,
2010-05-10, 02:05:05,VALID,1005.17,VALID,0,VALID,102.345,VALID,0,VALID,24.3566,VALID,86,VALID,0.421875,
2010-05-10, 02:06:05,VALID,1005.16,VALID,0,VALID,102.345,VALID,0,VALID,24.3352,VALID,106,VALID,0.623828,
2010-05-10, 02:07:05,VALID,1005.14,VALID,0,VALID,102.307,VALID,0,VALID,24.3566,VALID,106,VALID,0.635547,
2010-05-10, 02:08:05,VALID,1005.18,VALID,0,VALID,102.299,VALID,0,VALID,24.3566,VALID,120,VALID,0.782422,
2010-05-10, 02:09:05,VALID,1005.21,VALID,0,VALID,102.299,VALID,0,VALID,24.3547,VALID,132,VALID,0.7375,
2010-05-10, 02:10:05,VALID,1005.23,VALID,0,VALID,102.322,VALID,0,VALID,24.3761,VALID,128,VALID,0.425781,
2010-05-10, 02:11:05,VALID,1005.21,VALID,0,VALID,102.315,VALID,0.105969,VALID,24.3742,VALID,145,VALID,0.396484,
2010-05-10, 02:12:05,VALID,1005.24,VALID,0,VALID,102.33,VALID,0.105969,VALID,24.3956,VALID,146,VALID,0.336328,
2010-05-10, 02:13:05,VALID,1005.24,VALID,0,VALID,102.315,VALID,0.105969,VALID,24.3547,VALID,100,VALID,0.598047,
2010-05-10, 02:14:05,VALID,1005.27,VALID,0,VALID,102.307,VALID,0.105969,VALID,24.3761,VALID,95,VALID,0.828516,
2010-05-10, 02:15:05,VALID,1005.32,VALID,0,VALID,102.299,VALID,0.105969,VALID,24.415,VALID,91,VALID,0.853516,
2010-05-10, 02:16:05,VALID,1005.31,VALID,0,VALID,102.315,VALID,0.105969,VALID,24.3742,VALID,98,VALID,0.94375,
2010-05-10, 02:17:05,VALID,1005.36,VALID,0,VALID,102.322,VALID,0.105969,VALID,24.415,VALID,103,VALID,0.532812,
2010-05-10, 02:18:05,VALID,1005.35,VALID,0,VALID,102.292,VALID,0.105969,VALID,24.3937,VALID,96,VALID,0.837891,
2010-05-10, 02:19:05,VALID,1005.37,VALID,0,VALID,102.299,VALID,0.105969,VALID,24.3937,VALID,113,VALID,0.537109,
2010-05-10, 02:20:05,VALID,1005.36,VALID,0,VALID,102.299,VALID,0,VALID,24.415,VALID,93,VALID,0.7,
2010-05-10, 02:21:05,VALID,1005.39,VALID,0,VALID,102.299,VALID,0.105969,VALID,24.415,VALID,139,VALID,0.283203,
2010-05-10, 02:22:05,VALID,1005.38,VALID,0,VALID,102.315,VALID,0.105969,VALID,24.4132,VALID,135,VALID,0.160938,
2010-05-10, 02:23:05,VALID,1005.39,VALID,0,VALID,102.315,VALID,0.105969,VALID,24.3937,VALID,98,VALID,0.451953,
2010-05-10, 02:24:05,VALID,1005.37,VALID,0,VALID,102.315,VALID,0.105969,VALID,24.415,VALID,114,VALID,0.455078,
2010-05-10, 02:25:05,VALID,1005.37,VALID,0,VALID,102.299,VALID,0.105969,VALID,24.4132,VALID,114,VALID,0.396484,
2010-05-10, 02:26:05,VALID,1005.36,VALID,0,VALID,102.315,VALID,0.105969,VALID,24.3742,VALID,114,VALID,0.239453,
2010-05-10, 02:27:05,VALID,1005.39,VALID,0,VALID,102.315,VALID,0,VALID,24.3956,VALID,136,VALID,0.678906,
2010-05-10, 02:28:05,VALID,1005.41,VALID,0,VALID,102.299,VALID,0.105969,VALID,24.3742,VALID,135,VALID,0.558984,
2010-05-10, 02:29:05,VALID,1005.39,VALID,0,VALID,102.322,VALID,0.105969,VALID,24.3956,VALID,135,VALID,0.391406,
2010-05-10, 02:30:05,VALID,1005.43,VALID,0,VALID,102.322,VALID,0,VALID,24.3742,VALID,122,VALID,0.495703,
2010-05-10, 02:31:05,VALID,1005.45,VALID,0,VALID,102.315,VALID,0,VALID,24.3547,VALID,113,VALID,0.563672,
2010-05-10, 02:32:05,VALID,1005.45,VALID,0,VALID,102.322,VALID,0,VALID,24.415,VALID,123,VALID,0.589453,
2010-05-10, 02:33:05,VALID,1005.47,VALID,0,VALID,102.322,VALID,0,VALID,24.3937,VALID,106,VALID,0.790625,
2010-05-10, 02:34:05,VALID,1005.48,VALID,0,VALID,102.322,VALID,0.105969,VALID,24.4132,VALID,118,VALID,1.31602,
2010-05-10, 02:35:05,VALID,1005.44,VALID,0,VALID,102.345,VALID,0,VALID,24.4345,VALID,95,VALID,0.820313,
2010-05-10, 02:36:05,VALID,1005.48,VALID,0,VALID,102.322,VALID,0.105969,VALID,24.4345,VALID,113,VALID,0.798047,
2010-05-10, 02:37:05,VALID,1005.49,VALID,0,VALID,102.322,VALID,0.105969,VALID,24.4327,VALID,101,VALID,0.578516,
2010-05-10, 02:38:05,VALID,1005.45,VALID,0,VALID,102.33,VALID,0,VALID,24.454,VALID,89,VALID,0.400781,
2010-05-10, 02:39:05,VALID,1005.45,VALID,0,VALID,102.315,VALID,0,VALID,24.454,VALID,103,VALID,0.821875,
2010-05-10, 02:40:05,VALID,1005.47,VALID,0,VALID,102.322,VALID,0.105969,VALID,24.4327,VALID,97,VALID,0.219141,
2010-05-10, 02:41:05,VALID,1005.47,VALID,0,VALID,102.299,VALID,0,VALID,24.4735,VALID,74,VALID,1.225,
2010-05-10, 02:42:05,VALID,1005.48,VALID,0,VALID,102.307,VALID,0.105969,VALID,24.4522,VALID,96,VALID,0.346484,
2010-05-10, 02:43:05,VALID,1005.48,VALID,0,VALID,102.315,VALID,0,VALID,24.4522,VALID,85,VALID,1.29766,
2010-05-10, 02:44:05,VALID,1005.47,VALID,0,VALID,102.292,VALID,0.105969,VALID,24.4522,VALID,83,VALID,1.10781,
2010-05-10, 02:45:05,VALID,1005.46,VALID,0,VALID,102.277,VALID,0,VALID,24.4735,VALID,72,VALID,0.829687,
2010-05-10, 02:46:05,VALID,1005.45,VALID,0,VALID,102.292,VALID,0,VALID,24.454,VALID,88,VALID,1.0707,
2010-05-10, 02:47:05,VALID,1005.46,VALID,0,VALID,102.284,VALID,0,VALID,24.454,VALID,73,VALID,0.329688,
2010-05-10, 02:48:05,VALID,1005.41,VALID,0,VALID,102.269,VALID,0,VALID,24.4345,VALID,93,VALID,0.918359,
2010-05-10, 02:49:05,VALID,1005.41,VALID,0,VALID,102.269,VALID,0,VALID,24.4327,VALID,68,VALID,0.926172,
2010-05-10, 02:50:05,VALID,1005.43,VALID,0,VALID,102.269,VALID,0,VALID,24.4345,VALID,100,VALID,0.875391,
2010-05-10, 02:51:05,VALID,1005.43,VALID,0,VALID,102.261,VALID,0,VALID,24.415,VALID,83,VALID,0.467578,
2010-05-10, 02:52:05,VALID,1005.43,VALID,0,VALID,102.284,VALID,0,VALID,24.4364,VALID,104,VALID,0.750391,
2010-05-10, 02:53:05,VALID,1005.42,VALID,0,VALID,102.269,VALID,0,VALID,24.3956,VALID,79,VALID,0.492969,
2010-05-10, 02:54:05,VALID,1005.48,VALID,0,VALID,102.277,VALID,0,VALID,24.3956,VALID,50,VALID,0.370703,
2010-05-10, 02:55:05,VALID,1005.46,VALID,0,VALID,102.277,VALID,0.105969,VALID,24.3956,VALID,78,VALID,0.580078,
2010-05-10, 02:56:05,VALID,1005.42,VALID,0,VALID,102.269,VALID,0,VALID,24.3742,VALID,84,VALID,0.730078,
2010-05-10, 02:57:05,VALID,1005.41,VALID,0,VALID,102.284,VALID,0,VALID,24.3956,VALID,58,VALID,0.965625,
2010-05-10, 02:58:05,VALID,1005.43,VALID,0,VALID,102.269,VALID,0,VALID,24.3956,VALID,78,VALID,0.765625,
2010-05-10, 02:59:05,VALID,1005.4,VALID,0,VALID,102.269,VALID,0,VALID,24.3547,VALID,52,VALID,0.371484,
2010-05-10, 03:00:05,VALID,1005.4,VALID,0,VALID,102.261,VALID,0,VALID,24.3352,VALID,64,VALID,0.432422,
2010-05-10, 03:01:05,VALID,1005.41,VALID,0,VALID,102.269,VALID,0.105969,VALID,24.3352,VALID,56,VALID,0.76875,
2010-05-10, 03:02:05,VALID,1005.43,VALID,0,VALID,102.277,VALID,0,VALID,24.3352,VALID,78,VALID,0.509766,
2010-05-10, 03:03:05,VALID,1005.42,VALID,0,VALID,102.284,VALID,0.105969,VALID,24.3352,VALID,78,VALID,0.306641,
2010-05-10, 03:04:05,VALID,1005.39,VALID,0,VALID,102.269,VALID,0,VALID,24.3371,VALID,72,VALID,0.414063,
2010-05-10, 03:05:05,VALID,1005.37,VALID,0,VALID,102.277,VALID,0,VALID,24.3176,VALID,72,VALID,0.344531,
2010-05-10, 03:06:05,VALID,1005.34,VALID,0,VALID,102.277,VALID,0,VALID,24.2963,VALID,88,VALID,0.903906,
2010-05-10, 03:07:05,VALID,1005.33,VALID,0,VALID,102.277,VALID,0,VALID,24.2768,VALID,91,VALID,0.15625,
2010-05-10, 03:08:05,VALID,1005.34,VALID,0,VALID,102.261,VALID,0,VALID,24.2981,VALID,91,VALID,0.500781,
2010-05-10, 03:09:05,VALID,1005.36,VALID,0,VALID,102.277,VALID,0,VALID,24.2573,VALID,91,VALID,0.262891,
2010-05-10, 03:10:05,VALID,1005.38,VALID,0,VALID,102.277,VALID,0,VALID,24.2786,VALID,106,VALID,0.942187,
2010-05-10, 03:11:05,VALID,1005.34,VALID,0,VALID,102.292,VALID,0,VALID,24.2786,VALID,97,VALID,0.717969,
2010-05-10, 03:12:05,VALID,1005.32,VALID,0,VALID,102.299,VALID,0.105969,VALID,24.2768,VALID,79,VALID,0.951563,
2010-05-10, 03:13:05,VALID,1005.31,VALID,0,VALID,102.299,VALID,0,VALID,24.2768,VALID,91,VALID,0.674609,
2010-05-10, 03:14:05,VALID,1005.33,VALID,0,VALID,102.299,VALID,0.105969,VALID,24.2786,VALID,98,VALID,0.809375,
2010-05-10, 03:15:05,VALID,1005.32,VALID,0,VALID,102.284,VALID,0.105969,VALID,24.2786,VALID,81,VALID,1.46992,
2010-05-10, 03:16:05,VALID,1005.34,VALID,0,VALID,102.284,VALID,0,VALID,24.2786,VALID,98,VALID,1.05313,
2010-05-10, 03:17:05,VALID,1005.3,VALID,0,VALID,102.307,VALID,0,VALID,24.2378,VALID,97,VALID,0.948438,
2010-05-10, 03:18:05,VALID,1005.34,VALID,0,VALID,102.299,VALID,0.105969,VALID,24.2591,VALID,98,VALID,1.28359,
2010-05-10, 03:19:05,VALID,1005.3,VALID,0,VALID,102.315,VALID,0,VALID,24.2591,VALID,94,VALID,0.677344,
2010-05-10, 03:20:05,VALID,1005.34,VALID,0,VALID,102.284,VALID,0.105969,VALID,24.2591,VALID,89,VALID,0.739844,
2010-05-10, 03:21:05,VALID,1005.36,VALID,0,VALID,102.292,VALID,0.105969,VALID,24.2591,VALID,84,VALID,0.972266,
2010-05-10, 03:22:05,VALID,1005.33,VALID,0,VALID,102.292,VALID,0,VALID,24.2591,VALID,89,VALID,0.761719,
2010-05-10, 03:23:05,VALID,1005.31,VALID,0,VALID,102.277,VALID,0.105969,VALID,24.2573,VALID,71,VALID,0.657031,
2010-05-10, 03:24:05,VALID,1005.33,VALID,0,VALID,102.292,VALID,0,VALID,24.2591,VALID,75,VALID,1.00039,
2010-05-10, 03:25:05,VALID,1005.33,VALID,0,VALID,102.284,VALID,0.105969,VALID,24.2396,VALID,8,VALID,0.565625,
2010-05-10, 03:26:05,VALID,1005.34,VALID,0,VALID,102.292,VALID,0.105969,VALID,24.2396,VALID,84,VALID,0.128516,
2010-05-10, 03:27:05,VALID,1005.31,VALID,0,VALID,102.277,VALID,0,VALID,24.2202,VALID,79,VALID,0.286719,
2010-05-10, 03:28:05,VALID,1005.34,VALID,0,VALID,102.254,VALID,0.105969,VALID,24.1988,VALID,67,VALID,0.477734,
2010-05-10, 03:29:05,VALID,1005.33,VALID,0,VALID,102.277,VALID,0,VALID,24.2202,VALID,65,VALID,0.830469,
2010-05-10, 03:30:05,VALID,1005.33,VALID,0,VALID,102.246,VALID,0,VALID,24.2007,VALID,56,VALID,0.393359,
2010-05-10, 03:31:05,VALID,1005.32,VALID,0,VALID,102.261,VALID,0,VALID,24.1793,VALID,102,VALID,0.470703,
2010-05-10, 03:32:05,VALID,1005.32,VALID,0,VALID,102.261,VALID,0.105969,VALID,24.1599,VALID,52,VALID,0.382813,
2010-05-10, 03:33:05,VALID,1005.33,VALID,0,VALID,102.269,VALID,0.105969,VALID,24.1793,VALID,93,VALID,0.962891,
2010-05-10, 03:34:05,VALID,1005.32,VALID,0,VALID,102.277,VALID,0.105969,VALID,24.2007,VALID,83,VALID,0.546484,
2010-05-10, 03:35:05,VALID,1005.3,VALID,0,VALID,102.246,VALID,0.105969,VALID,24.1812,VALID,70,VALID,0.342969,
2010-05-10, 03:36:05,VALID,1005.29,VALID,0,VALID,102.269,VALID,0,VALID,24.1599,VALID,67,VALID,0.589844,
2010-05-10, 03:37:05,VALID,1005.28,VALID,0,VALID,102.284,VALID,0,VALID,24.1404,VALID,59,VALID,0.412891,
2010-05-10, 03:38:05,VALID,1005.29,VALID,0,VALID,102.284,VALID,0.105969,VALID,24.1599,VALID,60,VALID,0.486328,
2010-05-10, 03:39:05,VALID,1005.26,VALID,0,VALID,102.292,VALID,0.105969,VALID,24.1812,VALID,60,VALID,0.337891,
2010-05-10, 03:40:05,VALID,1005.29,VALID,0,VALID,102.284,VALID,0,VALID,24.1209,VALID,60,VALID,0.332031,
2010-05-10, 03:41:05,VALID,1005.27,VALID,0,VALID,102.277,VALID,0,VALID,24.1209,VALID,60,VALID,0,
2010-05-10, 03:42:05,VALID,1005.3,VALID,0,VALID,102.292,VALID,0.105969,VALID,24.1227,VALID,60,VALID,0,
2010-05-10, 03:43:05,VALID,1005.3,VALID,0,VALID,102.269,VALID,0,VALID,24.1227,VALID,82,VALID,0.549219,